Location: Chenereilles
(45.4866°N, 4.0790°E)
Time: 22:51:17
(UTC+00:00)

Cosmos 1805 Rocket - Pass Details

Date: 12 November 2019
Orbit: 606 x 630 km, 82.5° (Epoch: 05 December)

Event Time Altitude Azimuth Distance (km) Brightness Sun altitude
Rises 18:04:22 0° 347° (NNW) 2,876 7.1 -18.9°
Reaches altitude 10° 18:06:37 10° 344° (NNW) 1,969 6.2 -19.3°
Maximum altitude 18:10:54 60° 265° (W) 702 4.1 -20.0°
Drops below altitude 10° 18:15:10 10° 186° (S) 1,963 6.2 -20.8°
Sets 18:17:24 0° 182° (S) 2,867 7.1 -21.1°
